Data No, UTC Date,UTC Time,Latitude,Longitude,Course(deg),Temp(degC),Sal(psu)
82,2018/11/5,9:30,42-36.95N,141-37.07E,210,12.236,33.0967
83,2018/11/5,9:31,42-36.73N,141-36.90E,208,12.298,33.107
84,2018/11/5,9:32,42-36.48N,141-36.80E,188,12.437,33.1184
85,2018/11/5,9:33,42-36.21N,141-36.78E,181,12.633,33.1248
86,2018/11/5,9:34,42-35.92N,141-36.79E,178,12.742,33.1372
87,2018/11/5,9:35,42-35.63N,141-36.80E,178,12.802,33.1378
88,2018/11/5,9:36,42-35.33N,141-36.81E,179,12.892,33.0965
89,2018/11/5,9:37,42-35.03N,141-36.81E,179,12.928,32.9771
90,2018/11/5,9:38,42-34.73N,141-36.81E,179,12.975,32.9662
91,2018/11/5,9:39,42-34.42N,141-36.82E,179,13.099,32.9883
92,2018/11/5,9:40,42-34.12N,141-36.82E,179,13.462,33.0579
93,2018/11/5,9:41,42-33.80N,141-36.83E,180,13.767,33.1571
94,2018/11/5,9:42,42-33.51N,141-36.93E,154,13.91,33.2546
95,2018/11/5,9:43,42-33.28N,141-37.21E,137,13.948,33.3655
96,2018/11/5,9:44,42-33.06N,141-37.49E,136,13.966,33.4612
97,2018/11/5,9:45,42-32.81N,141-37.80E,136,14.048,33.5525
98,2018/11/5,9:46,42-32.57N,141-38.10E,137,14.151,33.6033
99,2018/11/5,9:47,42-32.32N,141-38.41E,138,14.209,33.6282
100,2018/11/5,9:48,42-32.07N,141-38.72E,138,14.272,33.6462
101,2018/11/5,9:49,42-31.80N,141-39.03E,138,14.332,33.6542
102,2018/11/5,9:50,42-31.54N,141-39.34E,138,14.381,33.664
103,2018/11/5,9:51,42-31.27N,141-39.66E,139,14.425,33.667
104,2018/11/5,9:52,42-31.00N,141-39.98E,138,14.362,33.6707
105,2018/11/5,9:53,42-30.73N,141-40.30E,139,14.311,33.6749
106,2018/11/5,9:54,42-30.45N,141-40.62E,138,14.29,33.6753
107,2018/11/5,9:55,42-30.18N,141-40.94E,139,14.268,33.6768
108,2018/11/5,9:56,42-29.90N,141-41.27E,139,14.232,33.673
109,2018/11/5,9:57,42-29.63N,141-41.59E,138,14.316,33.6624
110,2018/11/5,9:58,42-29.35N,141-41.92E,139,14.371,33.6514
111,2018/11/5,9:59,42-29.07N,141-42.25E,139,14.445,33.644
112,2018/11/5,10:00,42-28.79N,141-42.59E,135,14.484,33.6404
113,2018/11/5,10:01,42-28.53N,141-42.97E,131,14.615,33.6433
114,2018/11/5,10:02,42-28.29N,141-43.37E,129,14.783,33.651
115,2018/11/5,10:03,42-28.05N,141-43.77E,129,14.823,33.6603
116,2018/11/5,10:04,42-27.80N,141-44.18E,129,14.817,33.6627
117,2018/11/5,10:05,42-27.56N,141-44.58E,129,14.732,33.6668
118,2018/11/5,10:06,42-27.32N,141-44.97E,129,14.598,33.6665
119,2018/11/5,10:07,42-27.07N,141-45.37E,129,14.561,33.6652
120,2018/11/5,10:08,42-26.85N,141-45.79E,124,14.629,33.6646
121,2018/11/5,10:09,42-26.65N,141-46.22E,121,14.537,33.6552
122,2018/11/5,10:10,42-26.45N,141-46.67E,120,14.553,33.6408
123,2018/11/5,10:11,42-26.26N,141-47.11E,120,14.528,33.6315
124,2018/11/5,10:12,42-26.07N,141-47.54E,120,14.365,33.626
125,2018/11/5,10:13,42-25.88N,141-47.98E,121,14.224,33.6207
126,2018/11/5,10:14,42-25.68N,141-48.42E,120,14.06,33.6097
127,2018/11/5,10:15,42-25.49N,141-48.86E,120,14.087,33.5952
128,2018/11/5,10:16,42-25.29N,141-49.30E,120,14.02,33.5815
129,2018/11/5,10:17,42-25.10N,141-49.73E,120,14.082,33.5679
130,2018/11/5,10:18,42-24.91N,141-50.17E,121,14.04,33.5594
131,2018/11/5,10:19,42-24.71N,141-50.61E,121,13.999,33.5507
132,2018/11/5,10:20,42-24.52N,141-51.06E,120,14.103,33.5554
133,2018/11/5,10:21,42-24.32N,141-51.50E,121,14.09,33.5657
134,2018/11/5,10:22,42-24.13N,141-51.93E,120,13.957,33.5756
135,2018/11/5,10:23,42-23.93N,141-52.37E,121,13.963,33.5914
136,2018/11/5,10:24,42-23.73N,141-52.81E,121,13.92,33.6109
137,2018/11/5,10:25,42-23.53N,141-53.26E,121,13.942,33.6258
138,2018/11/5,10:26,42-23.34N,141-53.70E,120,14.04,33.6566
139,2018/11/5,10:27,42-23.14N,141-54.14E,121,14.153,33.6794
140,2018/11/5,10:28,42-22.94N,141-54.58E,121,14.244,33.69
141,2018/11/5,10:29,42-22.75N,141-55.03E,121,14.262,33.6882
142,2018/11/5,10:30,42-22.55N,141-55.47E,121,14.298,33.6791
143,2018/11/5,10:31,42-22.34N,141-55.92E,121,14.305,33.668
144,2018/11/5,10:32,42-22.15N,141-56.36E,120,14.332,33.6604
145,2018/11/5,10:33,42-21.95N,141-56.80E,121,14.477,33.6537
146,2018/11/5,10:34,42-21.75N,141-57.24E,120,14.572,33.6504
147,2018/11/5,10:35,42-21.56N,141-57.69E,120,14.676,33.6447
148,2018/11/5,10:36,42-21.37N,141-58.12E,120,14.768,33.6379
149,2018/11/5,10:37,42-21.17N,141-58.57E,120,14.824,33.629
150,2018/11/5,10:38,42-20.97N,141-59.01E,120,14.908,33.6193
151,2018/11/5,10:39,42-20.78N,141-59.46E,120,14.969,33.6106
152,2018/11/5,10:40,42-20.58N,141-59.89E,121,14.964,33.5989
153,2018/11/5,10:41,42-20.39N,142-00.33E,120,15.016,33.5886
154,2018/11/5,10:42,42-20.19N,142-00.78E,120,15.046,33.578
155,2018/11/5,10:43,42-19.99N,142-01.22E,121,15.061,33.5683
156,2018/11/5,10:44,42-19.80N,142-01.66E,120,15.005,33.5591
157,2018/11/5,10:45,42-19.60N,142-02.11E,120,15.011,33.5517
158,2018/11/5,10:46,42-19.41N,142-02.56E,119,15.037,33.5438
159,2018/11/5,10:47,42-19.22N,142-03.00E,120,15.056,33.5371
160,2018/11/5,10:48,42-19.02N,142-03.45E,120,15.034,33.5312
161,2018/11/5,10:49,42-18.83N,142-03.90E,120,15.059,33.5256
162,2018/11/5,10:50,42-18.63N,142-04.36E,120,15.03,33.5223
163,2018/11/5,10:51,42-18.43N,142-04.80E,120,15.114,33.5207
164,2018/11/5,10:52,42-18.24N,142-05.25E,120,15.084,33.5192
165,2018/11/5,10:53,42-18.04N,142-05.70E,120,15.072,33.5157
166,2018/11/5,10:54,42-17.84N,142-06.15E,120,15.003,33.5134
167,2018/11/5,10:55,42-17.64N,142-06.60E,120,14.98,33.5146
168,2018/11/5,10:56,42-17.45N,142-07.05E,121,14.849,33.5101
169,2018/11/5,10:57,42-17.25N,142-07.49E,120,14.844,33.5109
170,2018/11/5,10:58,42-17.06N,142-07.93E,121,14.731,33.5091
171,2018/11/5,10:59,42-16.86N,142-08.37E,120,14.561,33.5061
172,2018/11/5,11:00,42-16.67N,142-08.81E,120,14.475,33.5055
173,2018/11/5,11:01,42-16.47N,142-09.25E,121,14.473,33.509
174,2018/11/5,11:02,42-16.28N,142-09.69E,120,14.563,33.5188
175,2018/11/5,11:03,42-16.08N,142-10.13E,120,14.59,33.5464
176,2018/11/5,11:04,42-15.89N,142-10.56E,120,14.657,33.5775
177,2018/11/5,11:05,42-15.70N,142-11.00E,120,14.636,33.6077
178,2018/11/5,11:06,42-15.51N,142-11.43E,120,14.547,33.6344
179,2018/11/5,11:07,42-15.33N,142-11.87E,119,14.472,33.653
180,2018/11/5,11:08,42-15.15N,142-12.29E,119,14.486,33.6633
181,2018/11/5,11:09,42-14.96N,142-12.73E,119,14.487,33.6596
182,2018/11/5,11:10,42-14.79N,142-13.16E,118,14.486,33.6463
183,2018/11/5,11:11,42-14.60N,142-13.61E,119,14.528,33.6278
184,2018/11/5,11:12,42-14.42N,142-14.04E,119,14.594,33.6143
185,2018/11/5,11:13,42-14.24N,142-14.47E,118,14.72,33.605
186,2018/11/5,11:14,42-14.06N,142-14.91E,119,14.826,33.5917
187,2018/11/5,11:15,42-13.88N,142-15.35E,118,14.948,33.5838
188,2018/11/5,11:16,42-13.70N,142-15.79E,118,15.002,33.5741
189,2018/11/5,11:17,42-13.52N,142-16.23E,119,15.035,33.5672
190,2018/11/5,11:18,42-13.34N,142-16.67E,118,15.054,33.5613
191,2018/11/5,11:19,42-13.16N,142-17.11E,118,15.135,33.554
192,2018/11/5,11:20,42-12.98N,142-17.54E,119,15.179,33.5471
193,2018/11/5,11:21,42-12.80N,142-17.98E,118,15.23,33.5451
194,2018/11/5,11:22,42-12.62N,142-18.42E,118,15.236,33.5419
195,2018/11/5,11:23,42-12.43N,142-18.87E,118,15.234,33.5356
196,2018/11/5,11:24,42-12.25N,142-19.31E,119,15.236,33.5252
197,2018/11/5,11:25,42-12.06N,142-19.76E,119,15.212,33.5162
198,2018/11/5,11:26,42-11.88N,142-20.20E,118,15.206,33.504
199,2018/11/5,11:27,42-11.70N,142-20.64E,118,15.217,33.4942
200,2018/11/5,11:28,42-11.53N,142-21.07E,118,15.169,33.4857
201,2018/11/5,11:29,42-11.35N,142-21.51E,118,15.214,33.4789
202,2018/11/5,11:30,42-11.16N,142-21.95E,119,15.232,33.4747
203,2018/11/5,11:31,42-10.98N,142-22.40E,119,15.178,33.4746
204,2018/11/5,11:32,42-10.80N,142-22.83E,119,15.237,33.4823
205,2018/11/5,11:33,42-10.62N,142-23.27E,118,15.38,33.4897
206,2018/11/5,11:34,42-10.44N,142-23.72E,118,15.679,33.4921
207,2018/11/5,11:35,42-10.25N,142-24.16E,119,16.054,33.4962
208,2018/11/5,11:36,42-10.07N,142-24.60E,119,16.281,33.5066
209,2018/11/5,11:37,42-09.89N,142-25.05E,119,16.427,33.5404
210,2018/11/5,11:38,42-09.70N,142-25.50E,119,16.528,33.5908
211,2018/11/5,11:39,42-09.51N,142-25.95E,118,16.573,33.6441
212,2018/11/5,11:40,42-09.33N,142-26.41E,118,16.598,33.6762
213,2018/11/5,11:41,42-09.14N,142-26.86E,118,16.596,33.7066
214,2018/11/5,11:42,42-08.96N,142-27.31E,118,16.603,33.724
215,2018/11/5,11:43,42-08.79N,142-27.76E,118,16.574,33.7344
216,2018/11/5,11:44,42-08.60N,142-28.21E,118,16.573,33.7384
217,2018/11/5,11:45,42-08.41N,142-28.68E,119,16.609,33.7389
218,2018/11/5,11:46,42-08.22N,142-29.14E,119,16.651,33.7388
219,2018/11/5,11:47,42-08.03N,142-29.59E,119,16.7,33.7372
220,2018/11/5,11:48,42-07.84N,142-30.04E,118,16.744,33.7352
221,2018/11/5,11:49,42-07.63N,142-30.56E,118,16.784,33.7333
222,2018/11/5,11:50,42-07.43N,142-31.04E,119,16.791,33.7303
223,2018/11/5,11:51,42-07.28N,142-31.41E,119,16.808,33.7281
224,2018/11/5,11:52,42-07.09N,142-31.87E,119,16.83,33.7254
225,2018/11/5,11:53,42-06.90N,142-32.33E,119,16.82,33.7221
226,2018/11/5,11:54,42-06.71N,142-32.80E,119,16.799,33.7185
227,2018/11/5,11:55,42-06.52N,142-33.26E,119,16.814,33.7153
228,2018/11/5,11:56,42-06.32N,142-33.73E,118,16.83,33.7121
229,2018/11/5,11:57,42-06.13N,142-34.20E,118,16.843,33.709
230,2018/11/5,11:58,42-05.94N,142-34.66E,118,16.881,33.7061
231,2018/11/5,11:59,42-05.75N,142-35.13E,119,16.918,33.7032
232,2018/11/5,12:00,42-05.55N,142-35.60E,119,16.915,33.7006
233,2018/11/5,12:01,42-05.36N,142-36.07E,119,16.94,33.6984
234,2018/11/5,12:02,42-05.17N,142-36.54E,118,16.979,33.6971
235,2018/11/5,12:03,42-04.97N,142-37.01E,118,16.995,33.6946
236,2018/11/5,12:04,42-04.78N,142-37.48E,119,17.036,33.6926
237,2018/11/5,12:05,42-04.58N,142-37.96E,118,17.042,33.6904
238,2018/11/5,12:06,42-04.39N,142-38.43E,119,17.029,33.69
239,2018/11/5,12:07,42-04.19N,142-38.91E,119,17.059,33.6885
240,2018/11/5,12:08,42-03.99N,142-39.39E,119,17.056,33.6875
241,2018/11/5,12:09,42-03.80N,142-39.85E,119,17.036,33.686
242,2018/11/5,12:10,42-03.60N,142-40.33E,119,17.067,33.6847
243,2018/11/5,12:11,42-03.41N,142-40.80E,119,17.061,33.6836
244,2018/11/5,12:12,42-03.22N,142-41.27E,119,17.061,33.6825
245,2018/11/5,12:13,42-03.01N,142-41.77E,119,17.092,33.6814
246,2018/11/5,12:14,42-02.81N,142-42.23E,119,17.109,33.6807
247,2018/11/5,12:15,42-02.62N,142-42.69E,119,17.101,33.6796
248,2018/11/5,12:16,42-02.41N,142-43.18E,119,17.102,33.6793
249,2018/11/5,12:17,42-02.22N,142-43.63E,119,17.093,33.6774
250,2018/11/5,12:18,42-02.03N,142-44.10E,119,17.071,33.6763
251,2018/11/5,12:19,42-01.81N,142-44.59E,120,17.024,33.6747
252,2018/11/5,12:20,42-01.61N,142-45.05E,120,17.006,33.6739
253,2018/11/5,12:21,42-01.42N,142-45.51E,120,16.951,33.6731
254,2018/11/5,12:22,42-01.21N,142-45.99E,120,16.937,33.6716
255,2018/11/5,12:23,42-01.00N,142-46.45E,121,16.868,33.6705
256,2018/11/5,12:24,42-00.79N,142-46.91E,121,16.841,33.6696
257,2018/11/5,12:25,42-00.58N,142-47.38E,121,16.849,33.6695
258,2018/11/5,12:26,42-00.36N,142-47.85E,121,16.839,33.6684
259,2018/11/5,12:27,42-00.16N,142-48.30E,121,16.843,33.6705
260,2018/11/5,12:28,41-59.95N,142-48.76E,121,16.833,33.6695
261,2018/11/5,12:29,41-59.74N,142-49.22E,121,16.849,33.6718
262,2018/11/5,12:30,41-59.52N,142-49.69E,121,16.851,33.675
263,2018/11/5,12:31,41-59.32N,142-50.14E,121,16.852,33.6773
264,2018/11/5,12:32,41-59.11N,142-50.61E,121,16.864,33.6809
265,2018/11/5,12:33,41-58.91N,142-51.06E,121,16.895,33.6826
266,2018/11/5,12:34,41-58.69N,142-51.54E,121,16.917,33.6853
267,2018/11/5,12:35,41-58.48N,142-51.99E,121,16.91,33.6871
268,2018/11/5,12:36,41-58.27N,142-52.45E,121,16.935,33.6901
269,2018/11/5,12:37,41-58.05N,142-52.97E,121,16.943,33.693
270,2018/11/5,12:38,41-57.86N,142-53.38E,121,16.947,33.6934
271,2018/11/5,12:39,41-57.65N,142-53.84E,121,16.95,33.6931
272,2018/11/5,12:40,41-57.45N,142-54.29E,121,16.957,33.6928
273,2018/11/5,12:41,41-57.24N,142-54.75E,121,16.971,33.6923
274,2018/11/5,12:42,41-57.04N,142-55.21E,121,17.003,33.6917
275,2018/11/5,12:43,41-56.83N,142-55.66E,121,16.935,33.6916
276,2018/11/5,12:44,41-56.62N,142-56.12E,121,16.925,33.6905
277,2018/11/5,12:45,41-56.41N,142-56.59E,121,16.953,33.6885
278,2018/11/5,12:46,41-56.21N,142-57.04E,121,16.967,33.6873
279,2018/11/5,12:47,41-56.00N,142-57.49E,121,16.973,33.6845
280,2018/11/5,12:48,41-55.79N,142-57.95E,121,16.928,33.682
281,2018/11/5,12:49,41-55.57N,142-58.41E,121,16.896,33.6794
282,2018/11/5,12:50,41-55.37N,142-58.85E,122,16.856,33.6774
283,2018/11/5,12:51,41-55.15N,142-59.30E,122,16.814,33.6737
284,2018/11/5,12:52,41-54.94N,142-59.75E,122,16.811,33.669
285,2018/11/5,12:53,41-54.73N,143-00.21E,122,16.75,33.6648
286,2018/11/5,12:54,41-54.52N,143-00.65E,122,16.583,33.6652
287,2018/11/5,12:55,41-54.30N,143-01.10E,122,16.569,33.6683
288,2018/11/5,12:56,41-54.09N,143-01.55E,122,16.534,33.6724
289,2018/11/5,12:57,41-53.88N,143-02.00E,122,16.389,33.6778
290,2018/11/5,12:58,41-53.67N,143-02.46E,121,16.323,33.6772
291,2018/11/5,12:59,41-53.45N,143-02.91E,122,16.284,33.6893
292,2018/11/5,13:00,41-53.25N,143-03.35E,122,15.923,33.6953
293,2018/11/5,13:01,41-53.03N,143-03.79E,122,15.805,33.6945
294,2018/11/5,13:02,41-52.82N,143-04.24E,122,15.562,33.6905
295,2018/11/5,13:03,41-52.61N,143-04.69E,122,15.414,33.6779
296,2018/11/5,13:04,41-52.41N,143-05.14E,120,15.199,33.648
297,2018/11/5,13:05,41-52.21N,143-05.59E,121,14.838,33.6354
298,2018/11/5,13:06,41-52.00N,143-06.03E,121,14.849,33.6228
299,2018/11/5,13:07,41-51.80N,143-06.48E,120,14.751,33.5973
300,2018/11/5,13:08,41-51.60N,143-06.93E,119,14.188,33.5776
301,2018/11/5,13:09,41-51.41N,143-07.37E,120,12.456,33.5721
302,2018/11/5,13:10,41-51.21N,143-07.81E,120,12.372,33.5759
303,2018/11/5,13:11,41-51.02N,143-08.25E,120,12.221,33.5547
304,2018/11/5,13:12,41-50.82N,143-08.70E,120,12.227,33.4172
305,2018/11/5,13:13,41-50.62N,143-09.15E,120,12.259,33.1016
306,2018/11/5,13:14,41-50.42N,143-09.58E,120,12.24,32.9535
307,2018/11/5,13:15,41-50.23N,143-10.02E,120,12.251,32.9143
308,2018/11/5,13:16,41-50.03N,143-10.46E,120,12.366,32.9036
309,2018/11/5,13:17,41-49.83N,143-10.91E,121,12.244,32.8495
310,2018/11/5,13:18,41-49.63N,143-11.34E,119,12.116,32.8379
311,2018/11/5,13:19,41-49.56N,143-11.81E,91,12.26,32.8497
312,2018/11/5,13:20,41-49.65N,143-12.28E,72,12.309,32.8643
313,2018/11/5,13:21,41-49.76N,143-12.75E,70,12.231,32.8726
314,2018/11/5,13:22,41-49.89N,143-13.23E,70,12.06,32.8903
315,2018/11/5,13:23,41-50.01N,143-13.70E,70,11.958,32.8996
316,2018/11/5,13:24,41-50.13N,143-14.18E,71,11.991,32.8954
317,2018/11/5,13:25,41-50.25N,143-14.66E,72,11.895,32.9062
318,2018/11/5,13:26,41-50.37N,143-15.15E,72,11.945,32.8873
319,2018/11/5,13:27,41-50.48N,143-15.64E,73,11.884,32.8713
320,2018/11/5,13:28,41-50.58N,143-16.13E,74,11.89,32.8725
321,2018/11/5,13:29,41-50.68N,143-16.61E,74,11.842,32.8632
322,2018/11/5,13:30,41-50.79N,143-17.10E,73,11.798,32.8532
323,2018/11/5,13:31,41-50.90N,143-17.59E,72,11.803,32.8637
324,2018/11/5,13:32,41-51.01N,143-18.07E,73,11.915,32.8686
325,2018/11/5,13:33,41-51.12N,143-18.56E,72,12.06,32.8842
326,2018/11/5,13:34,41-51.23N,143-19.04E,72,12.276,32.8921
327,2018/11/5,13:35,41-51.35N,143-19.53E,72,12.431,32.8973
328,2018/11/5,13:36,41-51.46N,143-20.02E,73,12.499,32.8955
329,2018/11/5,13:37,41-51.58N,143-20.50E,66,12.445,32.9276
330,2018/11/5,13:38,41-51.81N,143-20.88E,43,12.462,32.9625
331,2018/11/5,13:39,41-52.11N,143-21.17E,35,12.479,32.9749
332,2018/11/5,13:40,41-52.41N,143-21.46E,34,12.425,32.9825
333,2018/11/5,13:41,41-52.73N,143-21.75E,35,12.457,32.9908
334,2018/11/5,13:42,41-53.03N,143-22.03E,35,12.449,32.9925
335,2018/11/5,13:43,41-53.34N,143-22.33E,35,12.453,32.9894
336,2018/11/5,13:44,41-53.65N,143-22.63E,35,12.418,33.004
337,2018/11/5,13:45,41-53.95N,143-22.93E,36,12.358,33.0205
338,2018/11/5,13:46,41-54.26N,143-23.23E,36,12.377,33.0274
339,2018/11/5,13:47,41-54.56N,143-23.54E,37,12.428,33.0352
340,2018/11/5,13:48,41-54.86N,143-23.84E,36,12.403,33.0402
341,2018/11/5,13:49,41-55.17N,143-24.14E,36,12.36,33.0359
342,2018/11/5,13:50,41-55.48N,143-24.45E,37,12.35,33.0346
343,2018/11/5,13:51,41-55.78N,143-24.76E,37,12.402,33.0335
344,2018/11/5,13:52,41-56.09N,143-25.07E,35,12.456,33.0345
345,2018/11/5,13:53,41-56.40N,143-25.34E,33,12.35,33.0374
346,2018/11/5,13:54,41-56.72N,143-25.61E,31,12.359,33.0367
347,2018/11/5,13:55,41-57.04N,143-25.88E,31,12.421,33.0342
348,2018/11/5,13:56,41-57.37N,143-26.14E,30,12.461,33.0342
349,2018/11/5,13:57,41-57.70N,143-26.40E,30,12.466,33.0389
350,2018/11/5,13:58,41-58.02N,143-26.65E,30,12.411,33.0431
351,2018/11/5,13:59,41-58.34N,143-26.90E,30,12.467,33.0415
352,2018/11/5,14:00,41-58.67N,143-27.15E,30,12.448,33.0353
353,2018/11/5,14:01,41-59.00N,143-27.41E,29,12.537,33.0301
354,2018/11/5,14:02,41-59.31N,143-27.65E,30,12.535,33.0238
355,2018/11/5,14:03,41-59.63N,143-27.91E,30,12.577,33.0187
356,2018/11/5,14:04,41-59.96N,143-28.16E,29,12.632,33.0059
357,2018/11/5,14:05,42-00.29N,143-28.41E,30,12.62,32.9866
358,2018/11/5,14:06,42-00.61N,143-28.66E,29,12.665,32.9617
359,2018/11/5,14:07,42-00.94N,143-28.91E,28,12.666,32.9348
360,2018/11/5,14:08,42-01.27N,143-29.13E,25,12.675,32.9169
361,2018/11/5,14:09,42-01.61N,143-29.33E,24,12.643,32.9045
362,2018/11/5,14:10,42-01.95N,143-29.53E,22,12.625,32.8967
363,2018/11/5,14:11,42-02.30N,143-29.71E,20,12.611,32.8885
364,2018/11/5,14:12,42-02.65N,143-29.88E,20,12.649,32.88
365,2018/11/5,14:13,42-03.00N,143-30.06E,20,12.6,32.8722
366,2018/11/5,14:14,42-03.35N,143-30.23E,20,12.621,32.8792
367,2018/11/5,14:15,42-03.70N,143-30.40E,20,12.617,32.889
368,2018/11/5,14:16,42-04.05N,143-30.57E,19,12.57,32.8942
369,2018/11/5,14:17,42-04.40N,143-30.74E,18,12.595,32.8956
370,2018/11/5,14:18,42-04.76N,143-30.90E,18,12.568,32.8979
371,2018/11/5,14:19,42-05.11N,143-31.05E,17,12.635,32.9011
372,2018/11/5,14:20,42-05.47N,143-31.21E,18,12.574,32.9025
373,2018/11/5,14:21,42-05.81N,143-31.36E,17,12.568,32.9053
374,2018/11/5,14:22,42-06.17N,143-31.51E,17,12.595,32.9091
375,2018/11/5,14:23,42-06.52N,143-31.66E,17,12.56,32.91
376,2018/11/5,14:24,42-06.88N,143-31.80E,16,12.531,32.9103
377,2018/11/5,14:25,42-07.23N,143-31.94E,15,12.512,32.9127
378,2018/11/5,14:26,42-07.59N,143-32.08E,15,12.474,32.9122
379,2018/11/5,14:27,42-07.94N,143-32.21E,15,12.453,32.9136
380,2018/11/5,14:28,42-08.31N,143-32.35E,15,12.417,32.9222
381,2018/11/5,14:29,42-08.66N,143-32.48E,15,12.441,32.9382
382,2018/11/5,14:30,42-09.01N,143-32.61E,15,12.364,32.9503
383,2018/11/5,14:31,42-09.37N,143-32.74E,15,12.36,32.9586
384,2018/11/5,14:32,42-09.72N,143-32.90E,19,12.317,32.9692
385,2018/11/5,14:33,42-10.07N,143-33.08E,22,12.309,32.9836
386,2018/11/5,14:34,42-10.41N,143-33.28E,22,12.347,33.0001
387,2018/11/5,14:35,42-10.73N,143-33.49E,29,12.335,33.0064
388,2018/11/5,14:36,42-11.05N,143-33.75E,31,12.363,33.0059
389,2018/11/5,14:37,42-11.37N,143-34.01E,31,12.289,33.0062
390,2018/11/5,14:38,42-11.69N,143-34.27E,30,12.239,33.0141
391,2018/11/5,14:39,42-12.01N,143-34.52E,31,12.297,33.0238
392,2018/11/5,14:40,42-12.31N,143-34.79E,33,12.403,33.0288
393,2018/11/5,14:41,42-12.62N,143-35.06E,33,12.473,33.0285
394,2018/11/5,14:42,42-12.93N,143-35.33E,33,12.467,33.0414
395,2018/11/5,14:43,42-13.25N,143-35.61E,33,12.51,33.0447
396,2018/11/5,14:44,42-13.56N,143-35.88E,33,12.549,33.0272
397,2018/11/5,14:45,42-13.87N,143-36.15E,33,12.51,33.0067
398,2018/11/5,14:46,42-14.18N,143-36.43E,33,12.533,32.9882
399,2018/11/5,14:47,42-14.49N,143-36.71E,33,12.521,32.9744
400,2018/11/5,14:48,42-14.79N,143-36.97E,32,12.353,32.9682
401,2018/11/5,14:49,42-15.10N,143-37.23E,32,12.327,32.9621
402,2018/11/5,14:50,42-15.41N,143-37.50E,33,12.255,32.9613
403,2018/11/5,14:51,42-15.72N,143-37.77E,32,12.327,32.9755
404,2018/11/5,14:52,42-16.03N,143-38.04E,32,12.402,33.011
405,2018/11/5,14:53,42-16.33N,143-38.30E,32,12.478,33.0207
406,2018/11/5,14:54,42-16.65N,143-38.57E,32,12.472,33.0222
407,2018/11/5,14:55,42-16.96N,143-38.83E,32,12.502,33.0234
408,2018/11/5,14:56,42-17.27N,143-39.10E,32,12.503,33.0181
409,2018/11/5,14:57,42-17.58N,143-39.37E,32,12.549,33.009
410,2018/11/5,14:58,42-17.89N,143-39.63E,32,12.508,33.001
411,2018/11/5,14:59,42-18.21N,143-39.90E,32,12.552,32.9915
412,2018/11/5,15:00,42-18.52N,143-40.16E,32,12.533,32.9857
413,2018/11/5,15:01,42-18.83N,143-40.43E,32,12.562,32.9804
414,2018/11/5,15:02,42-19.13N,143-40.69E,32,12.515,32.9785
415,2018/11/5,15:03,42-19.44N,143-40.95E,32,12.488,32.9777
416,2018/11/5,15:04,42-19.75N,143-41.22E,31,12.515,32.9763
417,2018/11/5,15:05,42-20.07N,143-41.48E,32,12.527,32.975
418,2018/11/5,15:06,42-20.38N,143-41.75E,32,12.487,32.9764
419,2018/11/5,15:07,42-20.69N,143-42.01E,32,12.511,32.9776
420,2018/11/5,15:08,42-21.01N,143-42.29E,32,12.487,32.9766
421,2018/11/5,15:09,42-21.32N,143-42.55E,31,12.505,32.9755
422,2018/11/5,15:10,42-21.63N,143-42.81E,32,12.519,32.9735
423,2018/11/5,15:11,42-21.95N,143-43.08E,32,12.561,32.9738
424,2018/11/5,15:12,42-22.26N,143-43.35E,31,12.597,32.9773
425,2018/11/5,15:13,42-22.58N,143-43.61E,32,12.542,32.9953
426,2018/11/5,15:14,42-22.89N,143-43.88E,32,12.587,33.0103
427,2018/11/5,15:15,42-23.20N,143-44.14E,31,12.602,33.0162
428,2018/11/5,15:16,42-23.52N,143-44.41E,31,12.573,33.0177
429,2018/11/5,15:17,42-23.84N,143-44.68E,32,12.588,33.0172
430,2018/11/5,15:18,42-24.16N,143-44.95E,31,12.561,33.0183
431,2018/11/5,15:19,42-24.48N,143-45.21E,31,12.547,33.0162
432,2018/11/5,15:20,42-24.80N,143-45.47E,31,12.61,33.0139
433,2018/11/5,15:21,42-25.12N,143-45.74E,31,12.598,33.0087
434,2018/11/5,15:22,42-25.44N,143-46.00E,31,12.641,33.003
435,2018/11/5,15:23,42-25.76N,143-46.27E,31,12.603,32.9982
436,2018/11/5,15:24,42-26.08N,143-46.54E,31,12.603,32.994
437,2018/11/5,15:25,42-26.40N,143-46.81E,31,12.571,32.9914
438,2018/11/5,15:26,42-26.72N,143-47.07E,32,12.624,32.9904
439,2018/11/5,15:27,42-27.03N,143-47.34E,32,12.617,32.9911
440,2018/11/5,15:28,42-27.35N,143-47.61E,31,12.603,32.9906
441,2018/11/5,15:29,42-27.67N,143-47.88E,31,12.579,32.9891
442,2018/11/5,15:30,42-27.99N,143-48.15E,32,12.576,32.9815
443,2018/11/5,15:31,42-28.31N,143-48.42E,32,12.586,32.9734
444,2018/11/5,15:32,42-28.62N,143-48.68E,31,12.599,32.9681
445,2018/11/5,15:33,42-28.94N,143-48.96E,32,12.547,32.966
446,2018/11/5,15:34,42-29.26N,143-49.23E,32,12.493,32.9663
447,2018/11/5,15:35,42-29.58N,143-49.49E,31,12.509,32.9667
448,2018/11/5,15:36,42-29.90N,143-49.76E,31,12.559,32.9721
449,2018/11/5,15:37,42-30.22N,143-50.03E,31,12.573,32.9798
450,2018/11/5,15:38,42-30.54N,143-50.29E,31,12.624,32.9925
451,2018/11/5,15:39,42-30.86N,143-50.55E,30,12.627,33.0049
452,2018/11/5,15:40,42-31.19N,143-50.82E,31,12.637,33.0116
453,2018/11/5,15:41,42-31.51N,143-51.08E,30,12.645,33.0099
454,2018/11/5,15:42,42-31.84N,143-51.35E,31,12.627,33.0022
455,2018/11/5,15:43,42-32.17N,143-51.62E,31,12.585,32.9894
456,2018/11/5,15:44,42-32.49N,143-51.88E,30,12.569,32.9786
457,2018/11/5,15:45,42-32.82N,143-52.15E,31,12.634,32.9703
458,2018/11/5,15:46,42-33.14N,143-52.42E,31,12.627,32.9593
459,2018/11/5,15:47,42-33.47N,143-52.70E,31,12.618,32.9574
460,2018/11/5,15:48,42-33.79N,143-52.97E,31,12.654,33.0056
461,2018/11/5,15:49,42-34.12N,143-53.24E,31,12.635,33.0651
462,2018/11/5,15:50,42-34.44N,143-53.51E,31,12.677,33.109
463,2018/11/5,15:51,42-34.77N,143-53.78E,31,12.651,33.141
464,2018/11/5,15:52,42-35.10N,143-54.05E,32,12.612,33.1562
465,2018/11/5,15:53,42-35.42N,143-54.34E,33,12.623,33.163
466,2018/11/5,15:54,42-35.74N,143-54.61E,32,12.618,33.1669
467,2018/11/5,15:55,42-36.06N,143-54.89E,32,12.537,33.1644
468,2018/11/5,15:56,42-36.38N,143-55.17E,32,12.578,33.1578
469,2018/11/5,15:57,42-36.70N,143-55.45E,32,12.652,33.1498
470,2018/11/5,15:58,42-37.03N,143-55.72E,32,12.672,33.1433
471,2018/11/5,15:59,42-37.35N,143-56.01E,32,12.677,33.1329
472,2018/11/5,16:00,42-37.68N,143-56.29E,32,12.575,33.115
473,2018/11/5,16:01,42-38.00N,143-56.57E,33,12.547,33.1008
474,2018/11/5,16:02,42-38.31N,143-56.86E,33,12.538,33.0917
475,2018/11/5,16:03,42-38.63N,143-57.14E,33,12.474,33.0842
476,2018/11/5,16:04,42-38.95N,143-57.43E,33,12.511,33.0675
477,2018/11/5,16:05,42-39.27N,143-57.72E,33,12.544,33.0385
478,2018/11/5,16:06,42-39.59N,143-58.02E,34,12.544,33.0064